[[{"header":{"parameterUnit":"m.s-1","parameterCategory":1,"la1":30.2991,"la2":30.254,"lo1":-89.0895,"lo2":-89.0444,"dy":0.0017,"dx":0.0017,"nx":28,"ny":28,"refTime":"2025-11-27T09:00:00:Z","depth":0,"parameterNumber":2,"parameterNumberName":"U-component_of_WINDS"},"data":[0,0,0,0,0,0,0,0,0,0,0,0,0,0,0,0,0,0,0,0,0,0,0,0,0,0,0,0,0,0,0,0,0,0,0,0,0,0,0,0,0,0,0,0,0,0,0,0,0,0,0,0,0,0,0,0,0,0,0.5179,0.5179,0,0.5141,0.514,0.514,0.514,0.5141,0.5141,0.5142,0.5099,0.5097,0.5095,0,0,0,0,0,0,0,0,0,0,0,0,0,0.5251,0.525,0.5179,0.5179,0.5178,0.5141,0.514,0.514,0.514,0.5141,0.5141,0.5142,0.5099,0.5097,0.5095,0,0,0,0,0,0,0,0,0,0,0,0,0,0.5217,0.5249,0.5179,0.5174,0.5173,0.5141,0.514,0.5139,0.514,0.5141,0.5142,0.5142,0.51,0.5097,0.5095,0.5064,0,0,0.5087,0.5086,0,0,0,0,0,0,0,0,0.5219,0.5214,0.5175,0.5174,0.5173,0.5146,0.515,0.5114,0.514,0.5152,0.5142,0.5143,0.5113,0.511,0.5101,0.5062,0.506,0.5087,0.5086,0.5085,0.5084,0,0,0,0,0,0,0,0.5221,0.5216,0.5164,0.5175,0.5174,0.5173,0.5169,0.5143,0.5129,0.5151,0.5151,0.5147,0.5113,0.5103,0.51,0.5059,0.5087,0.5085,0.5084,0.5083,0.4994,0.4993,0,0,0,0,0,0,0.5225,0.5218,0.5165,0.5163,0.5199,0.5171,0.5167,0.5154,0.5129,0.5126,0.5146,0.5147,0.5107,0.5103,0.5098,0.506,0.5085,0.5082,0.5081,0.4994,0.4993,0.4992,0,0,0,0,0,0,0.5227,0.522,0.5167,0.519,0.5183,0.5169,0.5155,0.5153,0.5143,0.5125,0.5123,0.5139,0.5107,0.5102,0.5073,0.5059,0.5081,0.5079,0.4995,0.4994,0.4993,0.4984,0,0,0,0,0,0,0.5229,0.5221,0.5209,0.519,0.5182,0.5142,0.5154,0.5151,0.5139,0.514,0.5118,0.5115,0.5108,0.5076,0.507,0.5056,0.5077,0.4997,0.4995,0.4993,0.4985,0.4982,0.498,0,0,0,0,0,0.5231,0.5208,0.5209,0.5202,0.5168,0.5142,0.5137,0.513,0.5138,0.5126,0.5115,0.5115,0.5062,0.5074,0.5067,0.5051,0.4997,0.4995,0.4993,0.4987,0.4983,0.498,0,0,0,0,0,0,0.5224,0.5205,0.5206,0.5176,0.5161,0.5142,0.5126,0.5127,0.5108,0.5109,0.5101,0.5096,0.5067,0.5056,0.507,0.502,0.503,0.5027,0.5028,0.5024,0.5021,0.5024,0.5075,0,0,0,0,0,0.5219,0.5201,0.5185,0.5159,0.5152,0.5141,0.5129,0.5125,0.5109,0.5102,0.5088,0.5071,0.5051,0.5037,0.5017,0.4985,0.4979,0.4971,0.4968,0.4966,0.4962,0.4944,0.494,0.4986,0.4986,0.4986,0,0,0.5208,0.5196,0.5184,0.5158,0.5145,0.5125,0.5135,0.5113,0.5098,0.5098,0.507,0.506,0.504,0.501,0.4995,0.5,0.4949,0.4963,0.4962,0.4959,0.4942,0.4937,0.4934,0.4984,0.4985,0.4985,0,0,0.5178,0.5167,0.5145,0.5133,0.5115,0.5108,0.5103,0.5085,0.5078,0.505,0.505,0.5032,0.4996,0.4983,0.4971,0.4938,0.4937,0.4931,0.4916,0.4899,0.4895,0.4892,0.4879,0.4875,0.4928,0.4928,0.4928,0,0.5167,0.5138,0.5133,0.5112,0.51,0.5101,0.5078,0.5066,0.5042,0.5033,0.504,0.4996,0.4983,0.4949,0.4941,0.4932,0.4925,0.4933,0.4896,0.4893,0.489,0.4878,0.4873,0.4928,0.4928,0.4928,0.4928,0,0.5124,0.5104,0.5088,0.5066,0.5053,0.503,0.5022,0.5009,0.5007,0.4999,0.4971,0.4956,0.4933,0.4925,0.4922,0.4891,0.4894,0.4898,0.4908,0.4885,0.4873,0.4869,0.4927,0.4927,0.4927,0.4927,0,0,0.5086,0.5064,0.5058,0.5048,0.5029,0.5013,0.4991,0.497,0.4959,0.4943,0.4923,0.4894,0.4899,0.4886,0.4882,0.4867,0.4841,0.4873,0.4872,0.4866,0.4804,0.48,0.4795,0.4841,0.484,0.484,0.4805,0,0.5053,0.5015,0.5011,0.4977,0.4958,0.496,0.494,0.4926,0.4919,0.4901,0.4893,0.4872,0.488,0.4872,0.4857,0.4847,0.4828,0.4849,0.4822,0.4821,0.4825,0.4789,0.4784,0.4752,0.4801,0.48,0.48,0,0.5009,0.4993,0.4957,0.4942,0.4934,0.4917,0.4897,0.4881,0.4865,0.4861,0.4847,0.4845,0.4822,0.4835,0.4802,0.4817,0.4806,0.48,0.4798,0.4794,0.4808,0.4782,0.4742,0.4737,0.4793,0.4793,0.4794,0,0.4984,0.4953,0.4928,0.492,0.4901,0.4889,0.4881,0.4866,0.4854,0.4837,0.4829,0.481,0.4798,0.4783,0.4776,0.4786,0.4744,0.4756,0.4738,0.4738,0.4728,0.4728,0.4684,0.4723,0.4723,0.4723,0.4723,0,0.4946,0.4924,0.4917,0.4901,0.4876,0.4872,0.4847,0.4839,0.4826,0.4809,0.4809,0.4792,0.4785,0.4766,0.4761,0.4735,0.473,0.4725,0.4723,0.4724,0.4724,0.4715,0.4717,0.4722,0.4722,0.4722,0.4723,0,0.4913,0.4908,0.488,0.4865,0.4861,0.4843,0.4831,0.4815,0.4809,0.4786,0.4781,0.477,0.4749,0.4741,0.4715,0.4712,0.4681,0.4682,0.4686,0.4685,0.4668,0.4669,0.4615,0.4608,0.4653,0.4653,0.4652,0,0.4889,0.4872,0.4856,0.4845,0.4837,0.4818,0.4807,0.4803,0.479,0.4772,0.4758,0.4738,0.472,0.4687,0.4676,0.4656,0.4656,0.4638,0.4652,0.4654,0.4654,0.4655,0.4653,0.4635,0.4634,0.4634,0.4634,0,0.4846,0.4845,0.4828,0.4811,0.4797,0.4783,0.4769,0.476,0.4753,0.4739,0.4718,0.4705,0.468,0.4659,0.4639,0.4629,0.463,0.463,0.4624,0.4624,0.4627,0.4624,0.4677,0.463,0.4631,0.4631,0.4631,0.4631,0.4816,0.4801,0.4788,0.477,0.4759,0.4747,0.4732,0.4724,0.4707,0.4687,0.4685,0.4663,0.4648,0.4621,0.4611,0.4593,0.4597,0.459,0.4588,0.4586,0.4584,0.4631,0.4589,0.4589,0.459,0.459,0.459,0,0.4772,0.4765,0.4748,0.4729,0.4715,0.4719,0.4705,0.4692,0.4672,0.4659,0.4643,0.4619,0.4599,0.4588,0.4568,0.4556,0.4556,0.4551,0.455,0.4548,0.4581,0.4588,0.4551,0.4551,0.4551,0.4551,0.4551,0.4551,0.4748,0.4723,0.472,0.469,0.4682,0.4661,0.4652,0.464,0.463,0.4604,0.4588,0.4581,0.4569,0.4548,0.453,0.4528,0.452,0.4514,0.4511,0.4542,0.4546,0.455,0.4555,0.4513,0.4512,0.4479,0.4479,0.4479]},{"header":{"parameterUnit":"m.s-1","parameterCategory":1,"la1":30.2991,"la2":30.254,"lo1":-89.0895,"lo2":-89.0444,"dy":0.0017,"dx":0.0017,"nx":28,"ny":28,"refTime":"2025-11-27T09:00:00:Z","depth":0,"parameterNumber":3,"parameterNumberName":"V-component_of_WINDS"},"data":[0,0,0,0,0,0,0,0,0,0,0,0,0,0,0,0,0,0,0,0,0,0,0,0,0,0,0,0,0,0,0,0,0,0,0,0,0,0,0,0,0,0,0,0,0,0,0,0,0,0,0,0,0,0,0,0,0,0,-7.2764,-7.2765,0,-7.2861,-7.2862,-7.2863,-7.2766,-7.2763,-7.2759,-7.2755,-7.2848,-7.2854,-7.286,0,0,0,0,0,0,0,0,0,0,0,0,0,-7.249,-7.2495,-7.2764,-7.2765,-7.2767,-7.2861,-7.2862,-7.2863,-7.2767,-7.2762,-7.2758,-7.2754,-7.2846,-7.2853,-7.286,0,0,0,0,0,0,0,0,0,0,0,0,0,-7.26,-7.2497,-7.2764,-7.273,-7.2728,-7.2861,-7.2862,-7.2864,-7.2768,-7.2762,-7.2757,-7.2751,-7.2844,-7.2852,-7.2861,-7.303,0,0,-7.2889,-7.2892,0,0,0,0,0,0,0,0,-7.2594,-7.261,-7.2734,-7.2733,-7.2731,-7.2796,-7.2799,-7.2919,-7.2769,-7.2753,-7.2755,-7.2749,-7.2835,-7.2844,-7.2874,-7.3034,-7.3038,-7.2889,-7.2895,-7.2899,-7.2901,0,0,0,0,0,0,0,-7.2586,-7.2605,-7.2802,-7.2736,-7.2734,-7.2708,-7.2717,-7.2822,-7.2824,-7.2754,-7.2747,-7.276,-7.2833,-7.2866,-7.2876,-7.304,-7.2889,-7.2897,-7.2903,-7.2906,-7.3343,-7.3349,0,0,0,0,0,0,-7.2583,-7.26,-7.2799,-7.2805,-7.2647,-7.2718,-7.2728,-7.2781,-7.2823,-7.2824,-7.2765,-7.2755,-7.2854,-7.2866,-7.2879,-7.308,-7.2899,-7.2907,-7.2912,-7.3337,-7.3344,-7.3351,0,0,0,0,0,0,-7.2578,-7.2602,-7.2795,-7.2701,-7.2723,-7.2728,-7.2788,-7.2785,-7.2819,-7.2831,-7.283,-7.2799,-7.285,-7.2866,-7.2994,-7.3081,-7.2911,-7.2919,-7.3329,-7.3339,-7.3348,-7.3483,0,0,0,0,0,0,-7.257,-7.2601,-7.2666,-7.2703,-7.2729,-7.2911,-7.2794,-7.2791,-7.2835,-7.2824,-7.2863,-7.2864,-7.2846,-7.2981,-7.3003,-7.3091,-7.2926,-7.3321,-7.3334,-7.3345,-7.347,-7.3495,-7.3517,0,0,0,0,0,-7.2561,-7.2699,-7.267,-7.2695,-7.2811,-7.2916,-7.293,-7.2909,-7.2843,-7.2908,-7.2916,-7.2863,-7.3068,-7.2995,-7.3018,-7.3111,-7.3316,-7.333,-7.3344,-7.346,-7.3491,-7.3516,0,0,0,0,0,0,-7.267,-7.2703,-7.2671,-7.2826,-7.2869,-7.29,-7.2981,-7.2942,-7.3004,-7.299,-7.2959,-7.2968,-7.3104,-7.3119,-7.3037,-7.3276,-7.3181,-7.32,-7.3261,-7.329,-7.3313,-7.3306,-7.2934,0,0,0,0,0,-7.2712,-7.2797,-7.282,-7.2954,-7.2978,-7.2976,-7.3021,-7.3001,-7.3044,-7.3061,-7.3078,-7.3119,-7.3193,-7.3242,-7.3311,-7.3472,-7.3479,-7.3547,-7.357,-7.3589,-7.3606,-7.3693,-7.3723,-7.3397,-7.3397,-7.3396,0,0,-7.28,-7.2828,-7.2883,-7.2977,-7.3008,-7.3094,-7.2992,-7.3087,-7.3151,-7.3074,-7.3197,-7.3211,-7.3255,-7.34,-7.3465,-7.3418,-7.3698,-7.3607,-7.3622,-7.3629,-7.371,-7.3741,-7.3769,-7.3406,-7.3405,-7.3403,0,0,-7.3004,-7.3035,-7.315,-7.3184,-7.3233,-7.3231,-7.3259,-7.3296,-7.3303,-7.3426,-7.3371,-7.3444,-7.3572,-7.3607,-7.3641,-7.3859,-7.3812,-7.3882,-7.4003,-7.4088,-7.4114,-7.4136,-7.4214,-7.4243,-7.3899,-7.3899,-7.3899,0,-7.3106,-7.3236,-7.3213,-7.3314,-7.3356,-7.3294,-7.3409,-7.3442,-7.3511,-7.3541,-7.3487,-7.3648,-7.3673,-7.3825,-7.3879,-7.3908,-7.3938,-7.3877,-7.4112,-7.4135,-7.4155,-7.4229,-7.4259,-7.3907,-7.3906,-7.3906,-7.3905,0,-7.3359,-7.345,-7.3537,-7.3608,-7.366,-7.3768,-7.3759,-7.3814,-7.379,-7.3794,-7.3919,-7.3947,-7.4021,-7.4055,-7.4032,-7.4205,-7.4174,-7.4117,-7.4021,-7.4195,-7.4264,-7.4292,-7.3919,-7.3916,-7.3914,-7.3912,0,0,-7.3634,-7.3692,-7.3725,-7.3756,-7.3807,-7.3876,-7.398,-7.4054,-7.4102,-7.4151,-7.4237,-7.4347,-7.4295,-7.4334,-7.4313,-7.4388,-7.4559,-7.4321,-7.4322,-7.4365,-7.4752,-7.4795,-7.4828,-7.4529,-7.4534,-7.4538,-7.4748,0,-7.384,-7.4024,-7.4007,-7.418,-7.4263,-7.4206,-7.4296,-7.4336,-7.4342,-7.4412,-7.4417,-7.4496,-7.4421,-7.4445,-7.4516,-7.4524,-7.4637,-7.4508,-7.4607,-7.4611,-7.4598,-7.4864,-7.491,-7.5107,-7.4775,-7.4779,-7.4783,0,-7.4105,-7.4167,-7.435,-7.4388,-7.4422,-7.4505,-7.4572,-7.464,-7.4683,-7.4682,-7.4727,-7.4694,-7.4796,-7.4698,-7.4839,-7.4752,-7.4791,-7.4801,-7.4808,-7.4817,-7.4708,-7.488,-7.5169,-7.5199,-7.4825,-7.4822,-7.4819,0,-7.4288,-7.4416,-7.4542,-7.4571,-7.4619,-7.4678,-7.47,-7.4739,-7.4785,-7.4842,-7.4872,-7.494,-7.4977,-7.503,-7.5016,-7.4946,-7.516,-7.506,-7.5161,-7.5162,-7.5208,-7.5206,-7.5508,-7.5234,-7.5233,-7.5233,-7.5232,0,-7.4519,-7.4633,-7.4625,-7.4703,-7.4829,-7.4807,-7.4931,-7.4946,-7.498,-7.5058,-7.5011,-7.5085,-7.5061,-7.5133,-7.5122,-7.5241,-7.5258,-7.5259,-7.5254,-7.5263,-7.5263,-7.5288,-7.5274,-7.5241,-7.5239,-7.5237,-7.5236,0,-7.4745,-7.4744,-7.4878,-7.4913,-7.4925,-7.5016,-7.5045,-7.5117,-7.512,-7.5219,-7.5241,-7.5245,-7.5327,-7.5318,-7.541,-7.5402,-7.5549,-7.5528,-7.5536,-7.5531,-7.5632,-7.5623,-7.5962,-7.6005,-7.5703,-7.5705,-7.5708,0,-7.4893,-7.498,-7.5026,-7.5076,-7.5103,-7.5184,-7.5232,-7.5213,-7.5264,-7.5321,-7.5386,-7.5465,-7.5527,-7.5662,-7.5671,-7.5741,-7.5721,-7.5835,-7.5731,-7.5738,-7.5723,-7.5718,-7.5727,-7.5855,-7.5859,-7.5862,-7.5864,0,-7.5156,-7.5152,-7.5224,-7.5296,-7.5355,-7.541,-7.546,-7.5503,-7.5489,-7.5549,-7.5634,-7.5683,-7.5778,-7.5856,-7.5923,-7.5942,-7.5901,-7.5897,-7.5924,-7.5934,-7.5935,-7.5936,-7.5592,-7.5889,-7.5886,-7.5884,-7.5883,-7.5882,-7.5348,-7.5422,-7.5467,-7.5549,-7.5585,-7.5633,-7.5703,-7.5716,-7.5787,-7.5865,-7.5849,-7.5945,-7.5985,-7.6071,-7.6098,-7.6172,-7.613,-7.6169,-7.6179,-7.6189,-7.6201,-7.5923,-7.6183,-7.6182,-7.6182,-7.6181,-7.6181,0,-7.5609,-7.5635,-7.571,-7.5784,-7.5848,-7.5805,-7.5859,-7.5914,-7.6,-7.6043,-7.6106,-7.6204,-7.628,-7.6296,-7.6368,-7.6424,-7.6407,-7.6444,-7.6439,-7.6445,-7.6234,-7.6204,-7.6457,-7.6457,-7.6457,-7.6456,-7.6456,-7.6456,-7.5752,-7.5877,-7.5878,-7.602,-7.6044,-7.614,-7.6175,-7.6218,-7.6252,-7.6365,-7.6429,-7.644,-7.6472,-7.6546,-7.6614,-7.6616,-7.6645,-7.6689,-7.6685,-7.6487,-7.646,-7.6433,-7.6405,-7.6696,-7.6696,-7.6889,-7.6891,-7.6892]}]]